LKLN Weather Reports


Display with metric or nautical units.
time (UTC)temp
F
wind
direction
speed
MPH
gust
MPH
rain 1hr
in
rain 24hr
in
rain mn
in
humidity
%
barometer
mb
20260906013110 50 0 2.0 0.0 0.00 0.00 0.00 87 1026.0
20260906010112 50 240 2.0 0.0 0.00 0.00 0.00 81 1026.0
20260906003110 52 0 0.0 0.0 0.00 0.00 0.00 76 1026.0
20260906000110 54 0 2.0 0.0 0.00 0.00 0.00 76 1025.0
20260905233231 55 0 2.0 0.0 0.00 0.00 0.00 71 1025.0
20260905230246 54 0 1.0 0.0 0.00 0.00 0.00 76 1025.0
20260905223110 57 240 3.0 0.0 0.00 0.00 0.00 62 1025.0
20260905220243 59 0 2.0 0.0 0.00 0.00 0.00 58 1025.0
20260905213109 61 0 2.0 0.0 0.00 0.00 0.00 55 1025.0
20260905210243 61 260 5.0 0.0 0.00 0.00 0.00 55 1024.0
20260905210106 61 260 5.0 0.0 0.00 0.00 0.00 55 1024.0
20260905205144 61 260 5.0 0.0 0.00 0.00 0.00 55 1024.0
20260905204744 61 260 5.0 0.0 0.00 0.00 0.00 55 1024.0
20260905204145 61 260 5.0 0.0 0.00 0.00 0.00 55 1024.0
20260905203245 61 260 5.0 0.0 0.00 0.00 0.00 55 1024.0
20260905200945 61 260 3.0 0.0 0.00 0.00 0.00 55 1024.0
20260905200349 61 260 3.0 0.0 0.00 0.00 0.00 55 1024.0
20260905195945 63 0 2.0 0.0 0.00 0.00 0.00 51 1023.0
20260905195245 63 0 2.0 0.0 0.00 0.00 0.00 51 1023.0
20260905194145 63 0 2.0 0.0 0.00 0.00 0.00 51 1023.0
20260905193458 63 0 2.0 0.0 0.00 0.00 0.00 51 1023.0
20260905193245 63 0 2.0 0.0 0.00 0.00 0.00 51 1023.0
20260905192746 64 300 5.0 0.0 0.00 0.00 0.00 45 1023.0
20260905192159 64 300 5.0 0.0 0.00 0.00 0.00 45 1023.0
20260905191645 64 300 5.0 0.0 0.00 0.00 0.00 45 1023.0
20260905181345 68 300 5.0 0.0 0.00 0.00 0.00 42 1022.0
20260905181145 68 300 5.0 0.0 0.00 0.00 0.00 42 1022.0
20260905180745 68 300 5.0 0.0 0.00 0.00 0.00 42 1022.0
20260905180348 68 300 5.0 0.0 0.00 0.00 0.00 42 1022.0
20260905180147 68 300 5.0 0.0 0.00 0.00 0.00 42 1022.0
20260905175445 70 290 7.0 0.0 0.00 0.00 0.00 40 1022.0
20260905175245 70 290 7.0 0.0 0.00 0.00 0.00 40 1022.0
20260905174745 70 290 7.0 0.0 0.00 0.00 0.00 40 1022.0
20260905174145 70 290 7.0 0.0 0.00 0.00 0.00 40 1022.0
20260905173459 70 290 7.0 0.0 0.00 0.00 0.00 40 1022.0
20260905172745 72 280 9.0 0.0 0.00 0.00 0.00 37 1021.0
20260905172159 72 280 9.0 0.0 0.00 0.00 0.00 37 1021.0
20260905171607 72 280 9.0 0.0 0.00 0.00 0.00 37 1021.0
20260905170559 72 280 9.0 0.0 0.00 0.00 0.00 37 1021.0
20260905170112 72 280 9.0 0.0 0.00 0.00 0.00 37 1021.0
20260905163846 72 280 7.0 0.0 0.00 0.00 0.00 40 1021.0
20260905163238 72 280 7.0 0.0 0.00 0.00 0.00 40 1021.0
20260905162944 72 280 8.0 0.0 0.00 0.00 0.00 37 1020.0
20260905162259 72 280 8.0 0.0 0.00 0.00 0.00 37 1020.0
20260905161646 72 280 8.0 0.0 0.00 0.00 0.00 37 1020.0
20260905161146 72 280 8.0 0.0 0.00 0.00 0.00 37 1020.0
20260905160845 72 280 8.0 0.0 0.00 0.00 0.00 37 1020.0
20260905160347 72 280 8.0 0.0 0.00 0.00 0.00 37 1020.0
20260905154745 73 270 9.0 0.0 0.00 0.00 0.00 38 1020.0
20260905154606 73 270 9.0 0.0 0.00 0.00 0.00 38 1020.0
20260905154245 73 270 9.0 0.0 0.00 0.00 0.00 38 1020.0
20260905151856 72 260 12.0 23.0 0.00 0.00 0.00 40 1020.0
20260905151146 72 260 12.0 23.0 0.00 0.00 0.00 40 1020.0
20260905150644 72 260 12.0 23.0 0.00 0.00 0.00 40 1020.0
20260905145945 73 260 13.0 0.0 0.00 0.00 0.00 38 1020.0
20260905145645 73 260 13.0 0.0 0.00 0.00 0.00 38 1020.0
20260905145144 73 260 13.0 0.0 0.00 0.00 0.00 38 1020.0
20260905144245 73 260 13.0 0.0 0.00 0.00 0.00 38 1020.0
20260905143746 73 260 13.0 0.0 0.00 0.00 0.00 38 1020.0
20260905142152 73 250 13.0 25.0 0.00 0.00 0.00 40 1020.0
20260905140458 73 250 13.0 25.0 0.00 0.00 0.00 40 1020.0
20260905140150 73 250 13.0 25.0 0.00 0.00 0.00 40 1020.0
20260905135107 72 250 13.0 26.0 0.00 0.00 0.00 46 1020.0
20260905134644 72 250 13.0 26.0 0.00 0.00 0.00 46 1020.0
20260905134245 72 250 13.0 26.0 0.00 0.00 0.00 46 1020.0
20260905133846 72 250 13.0 26.0 0.00 0.00 0.00 46 1020.0
20260905133458 72 250 13.0 26.0 0.00 0.00 0.00 46 1020.0
20260905133145 72 250 13.0 26.0 0.00 0.00 0.00 46 1020.0
20260905132255 72 250 14.0 25.0 0.00 0.00 0.00 46 1020.0
20260905131644 72 250 14.0 25.0 0.00 0.00 0.00 46 1020.0
20260905131145 72 250 14.0 25.0 0.00 0.00 0.00 46 1020.0
20260905130745 72 250 14.0 25.0 0.00 0.00 0.00 46 1020.0
20260905130251 72 250 14.0 25.0 0.00 0.00 0.00 46 1020.0
20260905125645 72 250 13.0 0.0 0.00 0.00 0.00 46 1020.0
20260905125446 72 250 13.0 0.0 0.00 0.00 0.00 46 1020.0
20260905125245 72 250 13.0 0.0 0.00 0.00 0.00 46 1020.0
20260905124945 72 250 13.0 0.0 0.00 0.00 0.00 46 1020.0
20260905124606 72 250 13.0 0.0 0.00 0.00 0.00 46 1020.0
20260905124106 72 250 13.0 0.0 0.00 0.00 0.00 46 1020.0
20260905123646 72 250 13.0 0.0 0.00 0.00 0.00 46 1020.0
20260905123345 72 250 13.0 0.0 0.00 0.00 0.00 46 1020.0
20260905123145 70 260 12.0 0.0 0.00 0.00 0.00 49 1021.0
20260905122152 70 260 12.0 0.0 0.00 0.00 0.00 49 1021.0
20260905121756 70 260 12.0 0.0 0.00 0.00 0.00 49 1021.0
20260905121145 70 260 12.0 0.0 0.00 0.00 0.00 49 1021.0
20260905120601 70 260 12.0 0.0 0.00 0.00 0.00 49 1021.0
20260905115853 70 250 12.0 0.0 0.00 0.00 0.00 52 1021.0
20260905114106 70 250 12.0 0.0 0.00 0.00 0.00 52 1021.0
20260905113237 70 250 12.0 0.0 0.00 0.00 0.00 52 1021.0
20260905112745 68 260 12.0 0.0 0.00 0.00 0.00 56 1021.0
20260905112258 68 260 12.0 0.0 0.00 0.00 0.00 56 1021.0
20260905111859 68 260 12.0 0.0 0.00 0.00 0.00 56 1021.0
20260905110112 68 260 12.0 0.0 0.00 0.00 0.00 56 1021.0
20260905105245 68 250 12.0 0.0 0.00 0.00 0.00 60 1021.0
20260905105107 68 250 12.0 0.0 0.00 0.00 0.00 60 1021.0
20260905104645 68 250 12.0 0.0 0.00 0.00 0.00 60 1021.0
20260905104345 68 250 12.0 0.0 0.00 0.00 0.00 60 1021.0
20260905103238 68 250 12.0 0.0 0.00 0.00 0.00 60 1021.0
20260905102845 66 240 13.0 0.0 0.00 0.00 0.00 63 1021.0
20260905102350 66 240 13.0 0.0 0.00 0.00 0.00 63 1021.0
20260905101945 66 240 13.0 0.0 0.00 0.00 0.00 63 1021.0
20260905101445 66 240 13.0 0.0 0.00 0.00 0.00 63 1021.0
20260905100845 66 240 13.0 0.0 0.00 0.00 0.00 63 1021.0
20260905100351 66 240 13.0 0.0 0.00 0.00 0.00 63 1021.0
20260905095245 64 230 14.0 0.0 0.00 0.00 0.00 67 1021.0
20260905094845 64 230 14.0 0.0 0.00 0.00 0.00 67 1021.0
20260905094245 64 230 14.0 0.0 0.00 0.00 0.00 67 1021.0
20260905093746 64 230 14.0 0.0 0.00 0.00 0.00 67 1021.0
20260905092445 63 240 12.0 0.0 0.00 0.00 0.00 72 1021.0
20260905091958 63 240 12.0 0.0 0.00 0.00 0.00 72 1021.0
20260905090846 63 240 12.0 0.0 0.00 0.00 0.00 72 1021.0
20260905090244 63 240 12.0 0.0 0.00 0.00 0.00 72 1021.0
20260905084245 63 250 8.0 0.0 0.00 0.00 0.00 72 1021.0
20260905083110 63 250 8.0 0.0 0.00 0.00 0.00 72 1021.0
20260905080111 61 240 8.0 0.0 0.00 0.00 0.00 77 1021.0
20260905073237 59 230 6.0 0.0 0.00 0.00 0.00 82 1021.0
20260905070112 57 220 7.0 0.0 0.00 0.00 0.00 87 1020.0
20260905063110 57 230 6.0 0.0 0.00 0.00 0.00 82 1020.0
20260905060244 55 230 7.0 0.0 0.00 0.00 0.00 87 1020.0
20260905053110 55 190 6.0 0.0 0.00 0.00 0.00 87 1020.0
20260905050243 55 200 8.0 0.0 0.00 0.00 0.00 87 1019.0
20260905043110 55 220 8.0 0.0 0.00 0.00 0.00 93 1019.0
20260905040111 57 230 9.0 0.0 0.00 0.00 0.00 87 1019.0
20260905033231 59 230 10.0 0.0 0.00 0.00 0.00 82 1019.0
20260905030113 61 240 6.0 0.0 0.00 0.00 0.00 87 1019.0
20260905023110 61 0 2.0 0.0 0.00 0.00 0.00 87 1018.0
20260905020114 63 0 2.0 0.0 0.00 0.00 0.00 82 1017.0